Home   Weather   Cape Canaveral   Past weeks
Flag for USA

Past Weather in Cape Canaveral, Florida, USA — Yesterday and Last 2 Weeks

Now
80 °F

Overcast.


Feels Like: 87 °F
Forecast: 81 / 74 °F
Wind: 9 mph from Northeast

Location: Cape Kennedy

Current Time: Oct 23, 2019 at 5:36:21 pm

Latest Report: Oct 23, 2019 at 4:56 pm


Visibility: 10 mi

Pressure: 30.05 "Hg

Humidity: 99%

Dew Point: 80 °F

Location of Cape CanaveralLocation

Past Weather in Cape Canaveral — Graph

°F

Cape Canaveral Temperature Yesterday

Maximum temperature yesterday: 92 °F (at 2:56 pm)
Minimum temperature yesterday: 75 °F (at 5:56 am)
Average temperature yesterday: 81 °F

High & Low Weather Summary for the Past Weeks

 TemperatureHumidityPressure
High92 °F (Oct 22, 2:56 pm)100% (Oct 10, 9:51 pm)30.07 "Hg (Oct 10, 9:51 pm)
Low66 °F (Oct 12, 4:56 am)10% (Oct 10, 8:56 pm)29.77 "Hg (Oct 19, 5:56 pm)
Average78 °F78%29.95 "Hg
* Reported Oct 10 9:56 am — Oct 23 3:56 pm, Cape Canaveral. Weather by CustomWeather, © 2019

Note: Actual official high and low records may vary slightly from our data, if they occured in-between our weather recording intervals... More about our weather records

Advertising

Cape Canaveral Weather History for the Previous 24 Hours

Scroll right to see more
 ConditionsComfort  
Time TempWeatherWind HumidityBarometerVisibility
3:56 pm
Wed, Oct 23
81 °FPartly sunny.15 mph98%30.04 "Hg10 mi
2:56 pm81 °FPartly sunny.14 mph89%30.05 "Hg10 mi
1:56 pm80 °FOvercast.15 mph96%30.05 "Hg10 mi
12:56 pm81 °FPartly sunny.17 mph100%30.06 "Hg10 mi
11:56 am82 °FPassing clouds.15 mph98%30.07 "Hg10 mi
10:56 am80 °FScattered clouds.13 mph90%30.06 "Hg10 mi
9:56 am79 °FSunny.12 mph77%30.06 "Hg10 mi
8:56 am77 °FSunny.10 mph98%30.04 "Hg10 mi
7:56 am73 °FSunny.9 mph100%30.02 "Hg10 mi
6:56 am74 °FClear.9 mph100%30.01 "Hg10 mi
6:36 am73 °FPassing clouds.10 mph100%30.01 "Hg10 mi
6:16 am75 °FPassing clouds.10 mph100%30.00 "Hg10 mi
5:56 am75 °FPassing clouds.9 mph100%30.00 "Hg10 mi
5:36 am75 °FPartly cloudy.9 mph100%29.99 "Hg10 mi
5:06 am77 °FPartly cloudy.10 mph100%29.99 "Hg10 mi
4:56 am76 °FPassing clouds.5 mph100%29.98 "Hg10 mi
3:56 am75 °FClear.5 mphN/A29.98 "Hg10 mi
2:56 am77 °FClear.6 mphN/A29.99 "Hg10 mi
1:56 am77 °FClear.3 mphN/A29.99 "Hg10 mi
12:56 am75 °FClear.3 mphN/A30.00 "Hg10 mi
11:56 pm
Tue, Oct 22
77 °FClear.No windN/A30.00 "Hg10 mi
10:56 pm77 °FClear.No windN/A30.01 "Hg10 mi
9:56 pm77 °FPassing clouds.6 mphN/A30.00 "Hg10 mi
9:31 pm77 °FPassing clouds.5 mph100%29.99 "Hg10 mi
8:59 pm79 °FDrizzle. Overcast.3 mphN/A29.99 "Hg10 mi
7:56 pm81 °FClear.7 mphN/A29.96 "Hg10 mi
6:56 pm82 °FClear.7 mph100%29.95 "Hg10 mi
5:56 pm84 °FSunny.10 mph99%29.94 "Hg10 mi
Weather by CustomWeather, © 2019

See weather overview